User: anonymous   Login
Location: Unspecified
(0.0000°N, 0.0000°E)
Time: 20:21:01
(UTC+01:00)
Language:

NOAA 12 - Orbit

View from above orbital plane
View from above orbital plane
View from above satellite
View from above satellite

Ground track
Ground track

The orbit data is extracted from the following two-line orbital elements,

1 21263U 91032A   17323.59180474  .00000003  00000-0  19321-4 0  9996
2 21263  98.5529 344.0183 0013595 183.3949 176.7141 14.25855082378877
Epoch (UTC): 19 November 2017 14:12:11
Eccentricity: 0.0013595
inclination: 98.5529°
perigee height: 796 km
apogee height: 815 km
right ascension of ascending node: 344.0183°
argument of perigee: 183.3949°
revolutions per day: 14.25855082
mean anomaly at epoch: 176.7141°
orbit number at epoch: 37887

The dashed part of the orbit path shows where the satellite is in the earth's shadow,  

DLR